Regional Weather Roundup
Issued by NWS

Home | Current Version | Previous Version | Graphics & Text | Print | Product List | Glossary On
Versions: 1 2 3 4 5 6 7 8 9 10 11 12 13 14 15 16 17 18 19 20 21 22 23 24 25 26 27 28 29 30 31 32 33 34 35 36 37 38 39 40 41 42 43 44 45 46 47 48 49 50
950
ASUS45 KBOU 290207
RWRCO

WEATHER ROUNDUP FOR COLORADO
NATIONAL WEATHER SERVICE DENVER/BOULDER CO
800 PM MDT SAT MAY 28 2016

NOTE: "FAIR" INDICATES FEW OR NO CLOUDS BELOW 12000 FEET WITH NO
SIGNIFICANT WEATHER AND/OR OBSTRUCTIONS TO VISIBILITY.

COZ001>005-013-030-031-290300-
...NORTHWEST COLORADO...

CITY           SKY/WX    TMP DP  RH WIND       PRES   REMARKS
CRAIG          FAIR      58  40  51 SW8       30.13R
HAYDEN         FAIR      54  36  50 S9        30.15R
MEEKER         FAIR      61  37  41 S5        30.14R
MOUNT WERNER   NOT AVBL
STEAMBOAT SPGS CLOUDY    55  36  48 S9        30.19R
WALDEN         NOT AVBL
$$

COZ006>008-011-290300-
...WEST CENTRAL VALLEYS...

CITY           SKY/WX    TMP DP  RH WIND       PRES   REMARKS
GRAND JUNCTION FAIR      70  35  27 W15       30.02R
MONTROSE       FAIR      69  29  22 W3        30.09R
EAGLE          FAIR      61  36  39 E3        30.18R
RIFLE          FAIR      63  37  38 S5        30.09R
DELTA          FAIR      74  28  18 W6        30.05R
NUCLA          FAIR      68  28  22 W5        30.12R
$$

COZ017>023-064>068-290300-
...SOUTHWEST COLORADO...

CITY           SKY/WX    TMP DP  RH WIND       PRES   REMARKS
DURANGO        MOCLDY    64  32  30 N8        30.13R
CORTEZ         FAIR      68  21  16 SW3       30.08R
PAGOSA SPRINGS FAIR      55  36  48 CALM      30.20R
TELLURIDE      MOCLDY    54  28  36 SE6       30.30R
WOLF CREEK PAS FAIR      36  21  55 SW13      30.45S
$$

COZ009-010-012-014-032>034-037-058>063-290300-
...CENTRAL COLORADO...

CITY           SKY/WX    TMP DP  RH WIND       PRES   REMARKS
ASPEN          FAIR      50  35  56 SW8       30.23R
BUENA VISTA    FAIR      55  32  41 SE12      30.21R
COPPER MTN     NOT AVBL
BERTHOUD PASS  MOCLDY    30  21  69 MISG      30.43R
COTTONWOOD PAS MOCLDY    52  27  37 E3        30.31R
GUNNISON       FAIR      61  25  25 W6        30.21R
KREMMLING      FAIR      50  37  62 CALM      30.22R
LEADVILLE      FAIR      43  27  53 NW6       30.33R
MONARCH PASS   CLOUDY    36  28  75 S14G21    30.52R
SALIDA         MOCLDY    60  31  33 S10       30.25R
SUNLIGHT       FAIR      43  30  61 N3        30.39R
WILKERSON PASS FAIR      39  23  52 NW3       30.40R
$$

COZ069>075-290300-
...SAN LUIS VALLEY/SANGRE DE CRISTO MOUNTAINS...

CITY           SKY/WX    TMP DP  RH WIND       PRES   REMARKS
ALAMOSA        FAIR      58  38  47 CALM      30.19R
LA VETA PASS   FAIR      43  32  65 S5        30.34R
SAGUACHE       CLOUDY    55  32  41 W22G29    30.25R
$$

COZ035-036-038>040-290300-
...NORTHERN COLORADO FRONT RANGE...

CITY           SKY/WX    TMP DP  RH WIND       PRES   REMARKS
DENVER INTL AP MOCLDY    58  47  66 SE8       30.07R
DMNS CITY PARK   N/A     62  42  48 E10G17    30.08R
AURORA         PTCLDY    59  45  60 SE12      30.11R
FRONT RANGE AP NOT AVBL
ERIE MUNI ARPT FAIR      60  43  54 CALM      30.08R
BOULDER MUN AP FAIR      61  41  48 SE5       30.09R
CENTENNIAL     FAIR      59  43  55 E10       30.11R
BROOMFIELD     MOCLDY    61  41  48 CALM      30.11
FORT COLLINS   FAIR      43  39  87 NW9G17    30.06F THUNDER
LONGMONT       FAIR      65  44  45 SE3       30.10R
$$

COZ041-046-047-076>085-087-088-290300-
...PIKES PEAK/PALMER DIVIDE AND SOUTHERN FOOTHILLS...

CITY           SKY/WX    TMP DP  RH WIND       PRES   REMARKS
COLO. SPRINGS  MOCLDY    61  38  42 S12       30.14R
A. F. ACADEMY  CLOUDY    61  37  41 VRB3      30.15R
SCHRIEVER AFB  NOT AVBL
ELLICOTT       FAIR     N/A N/A N/A S8        30.12R
FALCON         FAIR      54  38  54 CALM      30.18R
FORT CARSON    FAIR      61  39  44 SW7       30.11R
LIMON          FAIR      54  49  83 N7        30.11R
MONUMENT HILL  LGT RAIN  52  39  62 E8G18     30.20R
TRINIDAD       MOCLDY    61  42  49 S5        30.11R
$$

COZ042>045-048>051-090-091-290300-
...NORTHEAST COLORADO...

CITY           SKY/WX    TMP DP  RH WIND       PRES   REMARKS
GREELEY ARPT   MOCLDY    63  46  55 SE8       30.07R
AKRON          FAIR      62  41  46 W7        30.06R
BURLINGTON     FAIR      64  50  60 S8        30.05R
WRAY           FAIR      64  52  63 CALM      30.01S
STERLING       CLOUDY    64  48  55 W16G22    30.03R
HOLYOKE        FAIR      68  52  56 CALM      30.02R
FORT MORGAN    MOCLDY    62  48  59 CALM      30.06F
$$

COZ086-089-092>099-290300-
...SOUTHEAST COLORADO...

CITY           SKY/WX    TMP DP  RH WIND       PRES   REMARKS
PUEBLO         FAIR      63  51  65 NE9       30.05F
LA JUNTA       FAIR      70  44  39 NE9       30.03R
LAMAR          FAIR      68  47  46 E8        30.00R
SPRINGFIELD      N/A     64  44  48 S10       30.05R
$$




USA.gov is the U.S. government's official web portal to all federal, state and local government web resources and services.